Wind_Speed
19 17 15 12 11 8 5 3 2 4 6 7 9 10 12 13 14 13 13 13 14 14 15 15 16 16 16 15 14 14 13 12 12 11 11 10 9 9 8 6 6 5 4 2
21 19 17 15 14 10 7 5 3 1 3 5 6 8 9 11 12 12 11 11 13 14 15 15 15 15 16 15 14 13 13 12 12 12 11 10 10 10 10 9 7 6 5 4
23 22 20 18 15 13 10 7 6 2 1 3 4 6 8 9 10 11 11 11 11 12 13 14 15 15 15 15 15 14 13 12 12 12 12 12 11 11 11 10 9 8 6 5
26 25 22 20 17 15 12 10 8 6 2 1 3 5 6 8 9 10 10 10 10 11 11 12 13 13 14 14 14 13 13 12 12 13 13 12 11 11 11 10 9 8 7 6
27 27 25 22 19 17 15 13 11 8 6 3 3 4 5 6 8 9 9 9 9 9 10 10 11 12 12 13 13 13 13 12 12 12 12 12 12 11 11 10 10 9 8 7
27 27 25 24 22 21 18 15 13 11 9 7 5 5 4 6 7 8 8 9 9 8 8 9 10 11 11 12 12 12 13 12 12 12 12 12 12 12 12 11 10 10 10 9
29 28 27 26 25 22 19 17 16 13 11 9 7 7 5 6 6 7 8 9 9 8 7 8 9 10 10 11 11 11 12 12 12 13 13 13 12 12 12 12 12 12 11 10
29 29 28 27 26 24 21 19 18 17 15 12 10 9 7 6 6 6 7 8 8 7 7 8 9 10 10 10 11 10 11 11 12 12 13 14 13 13 12 12 12 12 11 10
30 29 28 28 27 26 24 21 20 20 18 16 14 12 10 8 7 7 7 7 7 6 6 7 8 9 9 10 10 10 9 10 10 11 12 13 14 14 13 13 13 13 12 12
31 30 30 30 29 28 26 24 22 22 20 18 16 15 12 10 8 8 7 7 7 6 6 6 7 8 8 9 9 9 8 8 9 10 11 13 14 14 14 14 14 14 13 13
32 31 31 31 31 30 28 26 24 23 22 20 19 15 13 12 10 9 8 7 7 6 6 6 7 7 7 8 9 8 7 8 9 10 11 13 14 15 15 16 17 16 14 14
31 32 32 32 31 31 30 28 26 25 24 23 22 18 15 13 11 10 9 8 7 7 7 7 7 7 7 7 8 8 8 8 9 11 12 14 15 16 17 17 17 17 16 16
32 32 33 33 34 33 32 30 29 27 26 25 24 20 17 15 13 12 11 9 8 8 9 9 8 8 7 8 9 8 9 9 10 11 12 14 16 17 17 18 18 18 18 17
33 33 33 33 33 34 33 32 31 30 29 27 26 23 19 17 15 14 13 12 11 10 10 9 9 8 8 9 10 10 11 11 11 12 13 15 17 18 18 19 19 19 19 18
33 33 33 33 32 33 35 34 33 32 31 30 28 26 22 19 17 16 15 15 14 13 12 11 11 10 10 11 11 11 12 12 12 13 14 16 17 18 19 19 20 19 19 19
33 34 34 34 34 34 34 34 34 34 33 32 30 28 24 22 21 19 18 17 17 15 14 13 12 12 12 12 13 14 13 14 14 15 16 17 18 19 19 19 20 20 19 19
33 33 34 35 35 35 36 35 35 34 33 33 31 28 26 24 22 21 20 19 18 16 15 14 13 13 13 13 14 15 16 16 16 16 18 19 19 20 20 20 20 20 20 19
34 35 35 35 35 37 36 35 35 35 34 33 32 30 28 26 24 23 21 20 19 17 17 16 16 15 15 15 15 16 17 17 18 18 19 20 20 20 21 21 21 21 21 21
36 36 37 37 37 38 37 36 35 35 35 34 33 31 29 27 26 24 22 21 19 19 19 18 18 17 18 18 17 17 18 19 19 20 20 21 21 21 21 22 22 23 23 23
37 38 39 39 39 40 37 35 35 35 35 33 33 32 30 29 28 25 24 23 22 21 22 21 20 20 20 21 20 20 20 20 21 21 22 22 22 22 23 23 23 24 24 24
38 39 40 40 40 40 37 36 34 35 35 33 33 32 32 30 29 27 27 25 25 24 23 23 23 23 23 23 23 22 22 22 22 22 24 23 23 23 24 24 24 25 25 25
39 39 39 40 41 39 37 36 35 34 33 33 32 32 32 31 30 29 28 27 27 26 25 24 24 24 24 25 25 25 25 24 23 24 25 25 25 25 25 25 25 26 26 27
40 40 40 40 40 38 37 37 36 35 35 34 33 32 33 33 32 32 31 30 29 28 27 26 26 26 27 27 26 26 26 26 26 26 27 27 27 27 27 27 27 27 28 29
39 40 40 40 40 39 38 37 36 36 36 36 35 34 33 34 33 33 32 32 31 30 29 29 28 28 29 28 27 27 28 28 28 28 28 28 28 28 29 29 29 30 30 30
36 37 38 39 39 39 39 38 38 37 36 36 36 35 34 34 34 34 33 33 33 32 31 31 31 30 29 29 29 30 29 29 29 29 29 29 29 29 29 30 31 31 31 31
36 36 36 37 38 38 38 38 39 39 38 37 36 35 34 34 34 34 34 35 34 34 33 33 33 32 32 32 32 31 30 30 30 31 31 31 31 31 31 31 32 32 32 33
Wind_Direction
204 202 202 204 201 196 187 154 106 81 59 53 43 36 31 27 27 26 28 32 34 35 38 39 43 45 45 46 47 50 52 51 51 49 46 44 46 47 47 43 37 34 37 27
206 203 203 206 206 202 197 187 169 122 49 41 38 31 26 24 22 22 26 28 32 36 39 41 43 45 45 44 44 46 46 46 47 47 45 43 44 44 43 42 39 35 30 20
206 206 208 208 210 210 206 204 193 197 35 22 22 20 20 19 16 18 23 27 33 35 36 37 40 42 43 43 44 44 42 42 44 44 44 44 44 41 38 37 38 35 28 15
208 210 210 211 212 215 216 217 215 214 228 356 358 3 14 14 13 13 19 23 28 32 35 35 37 41 41 41 41 40 39 40 40 40 40 40 39 36 33 31 27 22 12 4
210 211 211 213 215 219 219 223 223 228 235 252 306 332 359 1 8 10 14 17 19 19 26 31 34 38 38 38 39 37 37 38 37 37 37 36 35 32 30 27 21 14 5 354
211 213 213 214 219 222 223 228 230 236 240 250 277 300 328 345 356 1 6 7 9 9 15 25 30 35 37 37 38 37 36 37 36 34 32 31 29 26 24 20 15 8 2 356
212 215 216 218 222 225 226 229 234 238 243 250 259 277 305 331 345 351 355 355 358 5 11 19 27 32 35 33 35 37 37 36 36 32 30 27 24 21 18 15 11 4 1 358
215 216 219 220 223 227 230 231 235 242 249 251 255 265 286 308 323 335 341 346 355 3 7 13 20 26 29 28 27 31 33 33 32 29 27 24 20 15 12 9 6 1 357 353
217 217 220 221 222 226 228 231 235 240 245 250 254 258 269 290 305 317 325 332 343 350 359 7 12 19 22 20 19 19 23 24 25 24 21 18 14 12 8 4 360 356 350 346
218 218 219 221 222 226 228 231 235 239 242 247 252 256 266 279 291 301 310 317 330 336 345 359 6 9 13 13 10 7 11 13 13 14 15 12 9 6 3 0 354 349 344 341
220 220 219 221 224 227 229 231 236 241 245 249 253 257 268 274 279 290 296 304 316 328 336 343 351 353 360 4 0 1 2 360 359 360 360 1 1 359 358 356 352 347 343 340
223 224 221 221 225 227 230 232 236 242 245 248 252 256 264 268 271 278 283 292 300 312 324 332 340 339 341 349 352 352 353 351 351 353 353 353 355 354 354 352 349 345 342 338
224 225 224 222 225 228 230 232 236 241 245 248 251 254 259 265 268 274 280 284 290 302 313 324 331 336 338 343 345 342 341 341 341 345 347 347 348 349 349 348 347 343 340 336
226 228 228 227 228 230 232 234 237 241 245 250 252 254 256 260 264 270 277 282 284 292 303 311 317 328 336 338 342 342 341 337 335 337 341 341 341 342 343 342 343 341 340 336
228 230 229 229 229 230 234 236 239 243 246 249 252 255 255 256 259 264 271 274 280 286 292 300 303 310 316 322 326 328 334 332 331 331 332 334 334 334 336 338 340 338 337 337
232 233 233 231 230 231 233 235 238 242 246 249 252 253 253 254 256 259 264 269 274 278 285 291 293 297 304 312 316 317 321 323 323 321 322 325 325 326 328 332 334 336 336 335
234 236 236 235 234 233 235 235 238 240 243 247 250 252 251 253 256 258 262 265 269 273 276 283 286 290 295 302 309 313 314 316 315 314 313 316 318 324 322 324 327 329 331 330
234 236 238 239 237 237 238 238 239 241 243 247 250 251 251 254 256 257 259 260 265 269 273 278 280 284 288 292 299 306 308 309 309 309 309 313 317 320 322 322 323 326 325 325
235 236 238 239 240 241 240 241 242 243 244 246 249 251 250 252 254 256 256 259 263 267 270 273 275 278 284 289 294 299 302 304 306 306 307 309 312 314 316 318 319 321 323 322
235 236 238 240 242 242 242 244 246 246 246 245 246 249 249 250 253 254 256 258 259 262 266 269 274 279 284 287 290 295 298 300 302 304 307 307 310 311 312 313 313 315 317 319
236 238 239 240 243 245 245 246 245 245 246 245 245 247 249 250 254 255 254 256 257 260 263 266 271 276 281 285 288 290 294 294 297 301 306 306 309 311 312 312 310 311 313 315
237 239 240 240 242 245 245 246 245 245 244 244 244 245 247 249 252 253 253 254 256 258 260 264 268 274 278 282 285 286 289 289 293 297 300 303 306 308 310 312 311 309 310 311
238 240 242 242 243 244 243 244 245 245 244 244 243 244 246 248 250 250 251 254 255 257 259 263 267 271 276 279 282 284 285 288 292 295 297 300 302 303 306 308 309 309 308 310
240 241 243 244 243 243 243 243 244 245 246 246 246 246 247 248 248 248 250 253 255 257 259 263 267 272 274 276 277 280 282 285 289 292 295 296 297 298 301 303 305 306 308 308
241 242 244 244 243 242 242 243 244 246 248 248 249 248 247 248 247 247 249 253 256 258 261 264 268 273 274 274 277 279 281 284 288 290 292 294 296 298 299 301 302 303 304 304
242 243 242 242 241 241 240 243 245 247 248 249 249 250 251 251 250 248 249 252 255 258 261 264 267 270 274 277 279 280 281 284 286 288 290 292 293 295 297 299 300 301 301 301
Height
5923 5927 5928 5930 5931 5932 5933 5933 5934 5934 5934 5933 5933 5932 5931 5930 5928 5926 5923 5921 5919 5917 5914 5911 5908 5907 5905 5903 5902 5900 5899 5898 5897 5895 5894 5893 5892 5891 5890 5890 5889 5889 5889 5888
5923 5925 5928 5929 5930 5931 5933 5934 5934 5934 5934 5934 5934 5933 5933 5931 5930 5928 5925 5923 5921 5918 5916 5914 5911 5909 5907 5905 5904 5902 5901 5900 5898 5897 5896 5894 5893 5892 5892 5891 5890 5889 5889 5889
5920 5924 5925 5928 5929 5931 5932 5933 5934 5934 5934 5934 5934 5934 5934 5933 5931 5929 5927 5925 5922 5920 5918 5916 5914 5911 5909 5907 5905 5904 5903 5902 5900 5899 5897 5896 5895 5894 5893 5892 5891 5890 5889 5889
5918 5921 5924 5926 5928 5930 5932 5933 5933 5934 5934 5934 5935 5935 5935 5934 5932 5930 5928 5926 5924 5922 5920 5918 5915 5913 5911 5909 5907 5906 5904 5903 5902 5900 5899 5898 5896 5895 5894 5893 5891 5891 5890 5889
5915 5918 5921 5924 5927 5929 5930 5931 5933 5933 5934 5934 5935 5935 5936 5934 5933 5932 5929 5927 5925 5923 5921 5919 5917 5915 5913 5911 5909 5907 5906 5904 5903 5902 5900 5899 5898 5896 5895 5894 5892 5891 5890 5889
5912 5915 5919 5922 5924 5927 5929 5930 5931 5932 5933 5934 5934 5935 5935 5934 5933 5932 5930 5928 5926 5924 5922 5920 5919 5916 5914 5912 5911 5909 5907 5906 5904 5903 5902 5900 5899 5897 5896 5894 5893 5891 5889 5888
5909 5912 5916 5919 5922 5924 5926 5928 5929 5930 5931 5933 5933 5934 5935 5934 5933 5932 5930 5929 5927 5925 5923 5922 5920 5918 5916 5914 5912 5911 5909 5907 5906 5904 5903 5901 5900 5898 5896 5894 5892 5891 5889 5887
5905 5909 5913 5916 5919 5922 5924 5926 5928 5929 5930 5931 5932 5932 5934 5933 5932 5931 5930 5929 5927 5925 5924 5922 5920 5918 5917 5915 5914 5912 5910 5909 5907 5906 5904 5902 5900 5898 5897 5895 5893 5891 5889 5887
5901 5906 5910 5913 5916 5919 5921 5923 5925 5926 5927 5929 5930 5931 5932 5932 5932 5931 5930 5929 5927 5926 5924 5923 5921 5919 5917 5916 5914 5913 5912 5910 5908 5907 5905 5903 5901 5899 5897 5895 5893 5890 5888 5886
5897 5902 5905 5908 5912 5914 5917 5919 5921 5923 5924 5925 5927 5928 5931 5930 5930 5930 5929 5928 5927 5926 5925 5923 5921 5919 5917 5916 5915 5913 5912 5910 5909 5908 5906 5904 5902 5899 5897 5894 5892 5890 5887 5885
5892 5897 5901 5904 5907 5910 5913 5915 5917 5919 5921 5923 5924 5928 5928 5929 5929 5929 5928 5927 5926 5925 5924 5923 5921 5919 5918 5916 5915 5913 5912 5910 5909 5908 5906 5904 5902 5899 5897 5894 5891 5889 5886 5884
5887 5891 5895 5899 5903 5905 5908 5910 5913 5916 5918 5919 5921 5926 5926 5926 5927 5927 5926 5926 5925 5924 5923 5922 5920 5919 5917 5916 5914 5912 5911 5910 5909 5907 5905 5904 5901 5899 5896 5894 5891 5888 5885 5882
5881 5885 5890 5894 5899 5901 5903 5906 5909 5911 5913 5915 5917 5922 5922 5923 5924 5924 5924 5924 5923 5923 5922 5920 5919 5917 5916 5915 5913 5911 5911 5909 5908 5906 5905 5903 5901 5898 5896 5893 5890 5887 5884 5881
5876 5880 5884 5889 5892 5896 5898 5901 5904 5907 5909 5911 5913 5916 5918 5920 5921 5922 5922 5921 5921 5920 5920 5919 5917 5916 5915 5914 5912 5911 5910 5908 5907 5905 5904 5902 5900 5897 5895 5892 5889 5885 5882 5879
5870 5874 5878 5882 5887 5890 5893 5896 5899 5901 5904 5906 5909 5911 5914 5916 5917 5918 5919 5919 5918 5918 5917 5917 5916 5915 5914 5913 5911 5910 5909 5907 5905 5904 5902 5900 5898 5896 5893 5890 5887 5883 5880 5876
5864 5868 5872 5876 5880 5883 5886 5890 5893 5896 5898 5900 5903 5906 5909 5911 5912 5914 5915 5915 5915 5915 5915 5914 5913 5912 5911 5910 5909 5908 5907 5905 5903 5902 5900 5898 5896 5893 5890 5887 5884 5881 5878 5875
5858 5862 5865 5869 5873 5876 5879 5883 5886 5889 5892 5895 5897 5901 5904 5906 5907 5909 5910 5911 5911 5911 5911 5911 5910 5909 5908 5907 5907 5905 5904 5902 5901 5899 5897 5895 5892 5889 5886 5884 5881 5878 5875 5872
5851 5855 5858 5862 5866 5868 5875 5877 5880 5883 5886 5889 5892 5895 5898 5900 5902 5904 5905 5906 5906 5907 5907 5906 5906 5905 5905 5904 5903 5902 5900 5899 5897 5895 5893 5891 5888 5886 5883 5881 5878 5875 5872 5869
5844 5847 5850 5854 5857 5861 5866 5870 5873 5876 5879 5883 5885 5889 5891 5893 5895 5897 5899 5900 5901 5902 5902 5902 5901 5901 5901 5900 5899 5898 5897 5895 5893 5891 5889 5887 5885 5882 5880 5877 5875 5872 5869 5866
5835 5839 5843 5845 5848 5852 5860 5863 5866 5870 5872 5876 5878 5882 5884 5887 5889 5892 5894 5895 5895 5896 5897 5897 5896 5896 5896 5895 5894 5893 5892 5890 5889 5887 5884 5882 5880 5878 5875 5873 5870 5867 5865 5862
5827 5830 5833 5837 5840 5844 5851 5854 5858 5862 5866 5869 5871 5874 5877 5880 5883 5885 5887 5888 5889 5890 5891 5891 5891 5891 5890 5889 5888 5887 5886 5884 5883 5881 5879 5877 5875 5873 5870 5867 5864 5862 5860 5857
5818 5821 5825 5828 5832 5838 5842 5845 5849 5853 5857 5860 5863 5866 5870 5872 5875 5877 5879 5881 5883 5884 5885 5885 5885 5885 5884 5883 5882 5881 5880 5879 5877 5876 5874 5871 5869 5867 5865 5862 5859 5857 5854 5851
5809 5813 5816 5820 5825 5829 5833 5836 5840 5844 5848 5851 5855 5858 5861 5864 5867 5869 5872 5873 5875 5877 5878 5878 5878 5878 5877 5877 5876 5875 5874 5872 5871 5869 5867 5865 5863 5861 5859 5856 5854 5851 5848 5845
5800 5803 5807 5811 5815 5820 5824 5828 5832 5836 5839 5843 5847 5850 5853 5856 5858 5861 5863 5865 5867 5869 5870 5870 5870 5870 5870 5869 5869 5867 5866 5865 5864 5862 5860 5858 5856 5854 5852 5850 5847 5844 5842 5839
5791 5794 5797 5801 5806 5811 5815 5819 5823 5827 5831 5835 5838 5841 5845 5847 5850 5852 5854 5856 5858 5860 5861 5862 5862 5862 5862 5861 5860 5860 5858 5857 5856 5854 5853 5852 5850 5847 5845 5842 5840 5837 5834 5831
5782 5786 5789 5793 5797 5802 5807 5810 5814 5818 5822 5826 5829 5832 5835 5838 5840 5843 5845 5847 5849 5851 5852 5853 5853 5853 5853 5853 5852 5850 5850 5849 5848 5846 5845 5843 5842 5840 5837 5835 5832 5829 5827 5823